Content
SEND FEEDBACK

Daily
Averages
Monthly
Summary
United States of America

WRIGHTSBORO, NORTH CAROLINA


Home > North America > United States > North Carolina
Elevation: 30 feet     Latitude: 34 18N     Longitude: 077 54W

WEATHER
 
SELECT A DAY
Number of Records: 208,628;   Date Range: 1/1/95 - 7/20/14
 
SHARE

PRINT THIS DATA

[ ← Previous Day ]
WEATHER ALMANAC - FEBRUARY 25, 2013
[ Next Day → ]
[ °C ]   °F
Weather ElementAverageHighLow
Temperature42.8 °F46 °F (1:53 pm)39 °F (6:53 am)
Dewpoint33.1 °F39 °F (1:53 am)28.9 °F (11:53 am)
Humidity69.6 %93 % (1:53 am)54 % (1:53 pm)
Barometer30.11 in30.18 in (10:53 am)30.01 in (1:53 am)
Wind Speed10.8 mph19.6 mph (6:53 am)
Wind Gust23 mph (6:51 am)
Weather ElementAverage
Visibility9.7 mi
Wind DirectionNNE (33.7 °)

Weather ElementTotal
Precipitation---
Heating Degree Days22.5 (Base 65)
Averaged from 27 records on February 25, 2013
WEATHER CONDITIONS BREAKOUT
WIND DIRECTION BREAKOUT
WEATHER BY HOUR - FEBRUARY 25, 2013
[ °C ]   °F
Local TimeTemperatureDewpointHumidityBarometerVisibilityWind DirectionWind SpeedGust SpeedPrecipitationEventsConditions
1:53 AM41.0 °F39.0 °F93 %30.01 in6.0 miCalmClear
2:53 AM42.1 °F37.0 °F82 %30.02 in10.0 miCalmClear
3:53 AM43.0 °F35.1 °F74 %30.01 in10.0 miNNE (30°)15.0 mphClear
4:51 AM41.0 °F37.4 °F87 %30.07 in10.0 miNNE (30°)13.8 mphScattered Clouds
4:53 AM41.0 °F37.0 °F86 %30.07 in10.0 miNNE (30°)15.0 mphScattered Clouds
5:00 AM41.0 °F37.4 °F87 %30.07 in10.0 miNNE (30°)15.0 mphMostly Cloudy
5:53 AM42.1 °F37.9 °F85 %30.08 in7.0 miNNE (30°)15.0 mphOvercast
6:12 AM41.0 °F37.4 °F87 %30.10 in8.0 miNNE (30°)13.8 mphOvercast
6:51 AM39.2 °F32.0 °F75 %30.10 in10.0 miNNE (30°)16.1 mph23.0 mphScattered Clouds
6:53 AM39.0 °F32.0 °F76 %30.10 in10.0 miNNE (30°)19.6 mphPartly Cloudy
7:53 AM39.0 °F30.0 °F70 %30.14 in10.0 miNNE (30°)9.2 mphClear
8:53 AM39.9 °F30.0 °F68 %30.15 in10.0 miNE (50°)11.5 mphClear
9:53 AM42.1 °F30.0 °F62 %30.17 in10.0 miNNE (20°)10.4 mphClear
10:53 AM43.0 °F30.0 °F60 %30.18 in10.0 miNNE (20°)10.4 mphClear
11:53 AM44.1 °F28.9 °F55 %30.17 in10.0 miNNE (20°)9.2 mphClear
12:53 PM45.0 °F30.0 °F56 %30.14 in10.0 miNNE (30°)11.5 mphClear
1:53 PM46.0 °F30.0 °F54 %30.12 in10.0 miNE (40°)12.7 mphClear
2:53 PM46.0 °F30.0 °F54 %30.12 in10.0 miNorth (10°)9.2 mphClear
3:53 PM46.0 °F30.0 °F54 %30.13 in10.0 miNNE (20°)6.9 mphClear
4:53 PM46.0 °F30.9 °F56 %30.11 in10.0 miNE (50°)8.1 mphClear
5:53 PM45.0 °F32.0 °F60 %30.12 in10.0 miENE (60°)6.9 mphMostly Cloudy
6:53 PM44.1 °F33.1 °F65 %30.13 in10.0 miNE (40°)9.2 mph0.00 inMostly Cloudy
7:53 PM44.1 °F32.0 °F63 %30.13 in10.0 miNE (50°)11.5 mphOvercast
8:53 PM44.1 °F33.1 °F65 %30.13 in10.0 miEast (80°)10.4 mphOvercast
9:53 PM44.1 °F33.1 °F65 %30.12 in10.0 miNE (50°)10.4 mphOvercast
10:53 PM44.1 °F35.1 °F71 %30.09 in10.0 miNE (50°)10.4 mphOvercast
11:53 PM43.0 °F33.1 °F68 %30.06 in10.0 miNE (50°)11.5 mphOvercast
Hourly data recorded from KILM, located miles away from Wrightsboro, North Carolina







STORIES FROM OUR PARTNERS